Dewpoint
2 12 12 13 2 -0 -1 -1 -1 -1 -0 -0 1 6 8 6 5 6 3 -1 0 0 0 1 1 1 1 1 1 1 1 -1 -4
1 12 12 8 5 5 1 0 0 0 1 1 2 6 9 9 9 2 1 1 2 2 2 2 3 3 3 3 3 3 3 2 0
11 13 12 13 12 8 3 2 3 2 2 2 3 6 10 10 9 3 2 3 3 4 4 4 4 5 5 5 5 5 4 4 3
13 13 12 13 12 10 6 5 4 3 2 3 4 7 10 11 11 9 4 3 4 4 4 5 6 6 7 7 7 6 5 5 5
13 13 12 13 12 11 6 5 4 4 3 3 4 5 10 9 10 9 5 5 5 5 6 6 7 7 7 7 6 5 5 6 6
12 13 13 13 12 12 7 6 4 3 3 2 3 6 9 9 11 10 5 5 5 6 7 7 8 7 7 7 7 7 7 7 7
12 12 13 13 12 12 6 6 5 4 3 2 2 7 8 8 8 9 6 5 6 7 8 8 8 7 8 8 7 7 6 7 7
11 9 8 8 5 4 5 5 4 4 7 7 5 9 9 9 8 6 5 5 7 8 9 9 9 7 9 8 7 8 6 5 4
9 5 3 4 5 5 4 4 3 3 7 8 9 9 7 8 9 9 8 7 8 9 10 9 8 9 9 8 8 8 7 5 5
8 5 4 4 3 4 6 7 8 8 5 10 10 10 10 10 10 10 10 10 9 10 10 9 8 8 8 9 8 7 7 6 5
10 7 5 5 7 9 9 8 9 9 10 10 11 10 10 10 10 10 10 11 10 8 8 8 7 8 8 9 8 8 7 6 4
10 10 7 7 9 8 9 8 10 11 11 10 10 10 10 10 10 11 10 10 9 10 10 10 9 9 7 8 8 8 8 6 4
6 6 8 8 8 7 5 8 11 10 10 10 11 10 11 10 10 10 9 10 10 10 10 9 9 7 7 8 8 9 8 7 5
6 6 6 6 7 7 9 10 10 9 9 10 10 10 11 10 10 9 10 10 10 8 6 6 7 6 7 8 9 9 8 8 6
7 7 8 11 12 11 9 10 10 10 10 10 10 10 10 9 9 10 10 10 8 3 4 6 7 7 7 9 9 7 8 9 6
9 10 12 12 12 11 11 11 11 10 10 11 9 10 9 10 10 10 8 7 5 3 2 7 10 5 6 9 10 10 9 8 6
10 10 11 12 12 12 12 11 11 11 10 11 11 10 10 10 9 8 5 6 5 3 3 4 3 0 6 10 10 10 9 7 7
9 11 12 12 12 12 11 11 11 11 11 11 10 10 8 8 8 7 5 6 3 1 3 5 5 5 6 9 10 9 8 7 7
11 11 11 11 11 10 11 10 10 11 11 11 11 10 9 8 8 8 9 7 6 6 3 4 5 5 6 8 9 9 8 8 6
10 10 10 10 9 8 8 8 7 8 9 11 11 10 8 7 2 6 6 5 8 7 6 4 3 4 4 4 6 8 8 7 6
Wind_Speed
21 22 19 19 20 21 20 19 18 17 16 15 15 15 14 14 10 9 7 8 8 8 9 9 10 11 12 12 12 12 12 12 12
26 23 21 19 20 19 19 18 16 15 14 13 13 13 13 12 5 8 8 8 8 8 9 9 10 10 10 11 11 12 12 12 11
25 23 20 18 17 17 16 15 14 13 12 12 11 12 13 9 3 7 6 7 8 8 8 8 9 9 9 10 11 12 11 11 11
24 23 20 18 18 15 15 14 12 11 10 10 10 11 12 6 7 3 5 5 6 6 6 7 7 8 9 9 10 10 11 11 10
23 21 19 17 17 14 15 12 11 9 8 7 8 9 8 5 7 2 2 3 4 5 5 6 7 8 9 9 10 10 10 10 10
23 21 18 17 17 14 14 11 9 8 6 5 5 7 8 4 2 3 1 1 2 3 4 6 7 8 9 10 10 10 9 9 9
22 21 19 17 16 14 13 10 8 6 5 3 3 5 4 4 6 6 3 2 1 2 3 5 6 7 7 8 9 10 10 9 9
22 23 22 19 17 13 11 10 8 5 2 1 3 3 6 3 6 4 3 2 2 2 3 4 5 7 5 6 7 8 8 8 9
23 21 21 17 15 12 10 8 7 7 8 8 4 6 4 6 7 5 6 4 3 3 3 5 6 7 6 7 6 5 4 5 9
21 19 18 16 13 10 7 5 4 8 6 5 6 6 3 2 6 7 8 8 6 5 4 4 7 10 8 6 6 6 5 5 9
19 17 17 14 13 13 10 11 11 4 4 7 5 5 6 7 7 7 7 8 9 7 6 7 6 11 11 9 7 7 6 5 9
24 22 18 16 17 15 14 10 7 8 9 7 8 6 5 7 5 6 5 11 7 7 9 9 10 12 13 11 10 6 4 4 7
23 20 19 17 16 13 12 12 14 14 13 10 7 8 8 8 7 9 9 6 8 11 16 14 14 12 10 11 10 6 5 5 7
21 21 17 14 12 11 13 12 11 9 10 10 9 10 9 8 10 7 9 13 17 17 15 13 13 9 8 10 10 7 7 8 8
20 18 15 10 12 12 10 12 12 13 11 9 11 15 12 12 11 11 14 19 16 10 10 9 9 4 6 10 11 9 10 10 10
20 18 14 14 12 9 12 11 14 13 16 13 17 13 11 10 13 17 17 14 10 7 8 8 5 6 7 13 12 10 10 11 13
18 18 20 20 20 18 12 11 14 14 16 17 16 13 14 18 16 11 8 11 12 11 7 9 11 9 7 11 12 13 12 11 11
20 19 17 17 15 14 15 17 18 19 20 20 14 9 8 12 10 8 11 9 12 13 10 10 11 11 9 10 12 13 13 11 12
19 19 15 15 13 15 13 10 11 17 22 23 26 15 12 8 7 8 9 12 12 15 13 12 11 13 12 13 12 14 14 13 13
17 16 15 14 19 15 15 14 11 15 22 22 27 22 17 23 16 13 15 16 13 13 13 14 15 15 15 16 14 14 13 11 9
Wind_Direction
154 150 155 160 146 138 133 128 125 122 118 116 115 110 97 90 101 131 93 98 91 75 67 63 58 54 51 48 46 44 43 41 42
156 159 169 157 144 143 139 132 128 125 121 118 114 108 93 89 85 94 100 94 86 76 70 63 57 54 49 45 42 38 37 36 36
157 158 171 152 151 149 141 139 134 129 127 124 120 112 100 94 96 74 90 89 83 76 70 61 54 47 41 36 33 33 32 31 32
157 162 158 158 153 157 152 148 145 138 131 129 124 118 113 115 74 66 78 83 81 75 65 56 47 38 30 25 27 26 27 28 29
161 164 157 158 158 161 159 154 151 148 140 132 127 123 118 92 140 227 74 81 81 70 57 48 37 28 20 19 16 18 23 29 30
166 167 162 165 165 172 170 167 160 157 151 144 138 133 105 73 201 279 288 83 68 52 43 42 32 23 17 15 21 23 24 23 23
167 169 171 170 173 176 176 179 180 179 167 144 147 137 123 190 211 254 268 270 349 11 15 21 20 15 17 17 17 16 14 19 15
179 180 179 182 184 185 188 195 197 187 153 215 183 176 193 189 272 264 278 279 294 325 350 351 2 3 22 8 358 9 19 27 22
184 192 185 184 186 188 196 198 207 205 192 210 176 275 224 186 262 290 312 300 291 310 336 340 343 340 343 345 354 358 10 6 8
192 187 186 186 184 194 205 198 222 241 213 174 220 240 317 345 265 296 311 321 313 302 295 318 326 315 320 317 338 336 327 333 357
183 185 186 187 190 190 212 213 210 214 194 217 237 218 228 232 247 281 290 311 320 326 314 304 297 294 306 308 312 301 309 328 357
187 190 191 191 202 200 209 206 207 195 221 219 228 248 218 253 248 269 270 293 318 312 307 306 295 286 293 300 293 292 282 327 339
192 190 196 201 212 213 214 196 210 209 215 220 208 220 237 225 243 249 286 286 272 280 287 290 288 287 275 275 271 271 266 298 321
195 197 205 208 211 213 202 207 214 220 207 212 215 236 217 232 256 255 244 253 266 286 286 284 291 284 258 258 258 265 272 292 308
199 198 196 198 204 219 220 208 213 217 225 219 215 225 238 235 249 237 250 262 277 279 290 290 286 270 242 243 244 267 270 286 302
199 193 187 204 227 234 226 229 225 232 210 232 237 235 253 237 235 262 271 266 273 293 281 272 264 280 241 243 258 262 269 274 291
204 202 197 203 210 215 224 230 244 235 229 227 232 240 228 218 245 269 276 268 286 293 276 277 286 290 248 238 246 256 259 276 290
205 202 206 214 219 226 229 221 229 236 238 235 226 216 203 209 223 270 294 293 292 292 281 277 282 292 288 266 258 254 262 275 296
215 215 220 225 233 243 246 249 261 270 262 241 230 223 184 169 188 231 258 278 277 287 287 273 276 279 281 270 266 269 274 288 302
223 224 226 234 246 260 258 265 302 283 275 258 232 213 224 235 224 242 261 273 273 284 277 284 281 271 268 273 274 273 277 284 300
Height
1537 1541 1543 1544 1545 1547 1548 1550 1552 1553 1555 1557 1558 1559 1559 1559 1559 1559 1559 1560 1560 1560 1560 1559 1559 1558 1558 1557 1556 1555 1554 1553 1552
1536 1541 1544 1545 1547 1548 1550 1552 1553 1555 1557 1559 1560 1561 1561 1562 1560 1561 1561 1561 1561 1562 1561 1561 1561 1560 1559 1558 1557 1557 1556 1555 1554
1538 1541 1544 1547 1548 1550 1552 1553 1555 1556 1558 1559 1561 1562 1563 1563 1563 1563 1562 1562 1562 1563 1562 1562 1562 1561 1560 1560 1559 1558 1557 1556 1555
1539 1542 1544 1547 1550 1552 1553 1555 1556 1558 1559 1560 1562 1563 1564 1564 1564 1564 1564 1563 1563 1563 1563 1563 1563 1562 1562 1561 1560 1559 1558 1557 1556
1540 1542 1545 1548 1551 1552 1554 1555 1557 1558 1560 1561 1563 1564 1564 1565 1566 1565 1565 1564 1564 1564 1564 1564 1564 1563 1563 1562 1561 1560 1559 1558 1558
1539 1542 1545 1548 1551 1553 1554 1556 1557 1559 1560 1562 1563 1564 1565 1566 1566 1566 1566 1565 1564 1564 1564 1564 1564 1564 1564 1563 1562 1561 1560 1559 1558
1537 1541 1545 1548 1550 1552 1554 1556 1557 1559 1560 1561 1563 1564 1564 1567 1566 1566 1566 1566 1565 1564 1564 1564 1564 1564 1563 1563 1562 1562 1561 1560 1559
1536 1539 1542 1545 1548 1551 1554 1556 1557 1559 1559 1560 1563 1564 1565 1566 1566 1566 1566 1566 1566 1565 1564 1564 1564 1564 1563 1562 1562 1561 1560 1559 1558
1535 1538 1541 1545 1548 1550 1553 1555 1557 1557 1559 1561 1562 1564 1565 1565 1565 1566 1566 1566 1566 1565 1564 1564 1563 1563 1562 1561 1561 1560 1560 1559 1559
1533 1537 1541 1544 1547 1549 1551 1553 1555 1557 1559 1560 1562 1564 1565 1566 1566 1566 1566 1566 1565 1564 1563 1562 1562 1561 1561 1561 1560 1560 1559 1559 1558
1533 1536 1539 1542 1545 1549 1551 1553 1555 1556 1558 1560 1561 1563 1564 1566 1566 1565 1565 1564 1563 1562 1562 1561 1561 1559 1559 1559 1558 1559 1559 1559 1558
1532 1535 1538 1541 1544 1546 1549 1551 1554 1555 1557 1559 1560 1562 1563 1564 1564 1563 1563 1563 1562 1561 1560 1559 1558 1558 1557 1557 1556 1557 1556 1556 1557
1531 1533 1536 1539 1542 1544 1545 1549 1551 1552 1555 1556 1558 1560 1561 1563 1563 1562 1563 1561 1560 1559 1557 1556 1555 1554 1554 1554 1554 1555 1554 1553 1554
1527 1531 1534 1537 1540 1543 1544 1546 1548 1550 1552 1553 1556 1557 1558 1560 1560 1560 1560 1559 1558 1557 1555 1554 1553 1552 1552 1551 1553 1553 1554 1553 1552
1525 1528 1532 1535 1538 1540 1542 1544 1545 1547 1551 1551 1553 1554 1555 1557 1557 1556 1557 1555 1555 1554 1550 1551 1551 1550 1551 1549 1548 1549 1549 1550 1549
1522 1526 1530 1534 1535 1537 1540 1541 1543 1544 1549 1549 1551 1550 1552 1553 1553 1553 1553 1552 1552 1551 1549 1547 1547 1547 1547 1548 1548 1548 1548 1546 1547
1520 1524 1527 1530 1532 1535 1536 1539 1540 1541 1545 1546 1547 1547 1548 1548 1549 1550 1550 1550 1550 1550 1549 1547 1545 1545 1545 1545 1546 1546 1546 1544 1543
1517 1520 1523 1526 1529 1531 1533 1535 1538 1538 1541 1542 1544 1544 1542 1543 1545 1546 1547 1546 1547 1546 1546 1547 1545 1545 1544 1543 1541 1542 1542 1541 1541
1514 1517 1519 1523 1526 1530 1529 1531 1532 1535 1535 1536 1537 1539 1538 1540 1542 1541 1542 1544 1544 1543 1543 1543 1543 1542 1543 1542 1541 1541 1540 1540 1540
1511 1514 1517 1518 1525 1524 1524 1525 1525 1527 1532 1532 1530 1532 1535 1534 1536 1536 1536 1539 1541 1542 1541 1539 1540 1538 1537 1538 1538 1538 1538 1538 1537